Weather in Argayash

Russia / Chelyabinsk Oblast     55°29′19″N   60°52′34″E
temp.,
°C
wind,
m/s
gust,
m/s
humid.,
%
clouds,
%
prec.,
mm/h
press.,
hPa
HPBL,
m
4 march, thu
thu423:00−5wsw3393100 0.1 100041
02:00−8wsw348826 0.0 99936
05:00−9sw468928 0.0 99993
08:00−7sw488998 0.0 998155
11:00−5w6118298 0.0 998881
14:00−5w71076100 0.0 9991261
17:00−6w498399 0.1 1000605
20:00−10sw448613 0.0 100055
5 march, fri
fri523:00−9ssw5108649 0.0 1000182
02:00−7ssw81582100 0.0 996374
05:00−6ssw6138488 0.0 995312
08:00−3wsw6167678 0.1 995668
11:00−2wsw7147389 0.1 997936
14:00−1wsw7127687 0.0 9991284
17:00−3wsw498194 0.0 1001380
20:00−6w4985100 0.0 1002238
6 march, sat
sat623:00−8wnw41088100 0.0 1004304
02:00−13w5128833 0.0 1007282
05:00−15w498817 0.0 1010159
08:00−16wsw46890 0.0 101193
11:00−9w511790 0.0 1011562
14:00−6w58750 0.0 1011936
17:00−6wsw248312 0.0 1010113
20:00−10sw238688 0.0 101032
7 march, sun
sun723:00−13wsw118694 0.0 101021
02:00−13n1287100 0.0 100821
05:00−14nnw3393100 0.0 100744
08:00−15nnw3396100 0.0 100747
11:00−11nnw249196 0.1 1008275
14:00−9nw468077 0.0 1009974
17:00−10wnw478188 0.1 1010681
20:00−16wnw448635 0.0 101154
8 march, mon
mon823:00−19wnw349118 0.0 101433
02:00−21wsw23930 0.0 101420
05:00−22ssw34906 0.0 101326
08:00−19s5108896 0.0 1011249
11:00−14s8139498 0.4 1009484
14:00−9ssw81385100 0.3 1006638
17:00−5sw5118699 0.3 1006775
20:00−11sw467433 0.1 100790